Regional Weather Roundup
Issued by NWS

Home | Current Version | Previous Version | Text Only | Print | Product List | Glossary On
Versions: 1 2 3 4 5 6 7 8 9 10 11 12 13 14 15 16 17 18 19 20 21 22 23 24 25 26 27 28 29 30 31 32 33 34 35 36 37 38 39 40 41 42 43 44 45 46 47 48 49 50
000
ASUS44 KJAN 281410
RWRMS

MISSISSIPPI HOURLY WEATHER ROUNDUP
NATIONAL WEATHER SERVICE JACKSON MS
900 AM CDT SAT MAR 28 2015

NOTE: "FAIR: INDICATES FEW OR NO CLOUDS BELOW 12,000 FEET WITH NO
SIGNIFICANT WEATHER AND/OR OBSTRUCTIONS TO VISIBILITY.

MSZ001>002-007>008-010>013-018>021-025>028-034>036-281500-
NORTHWEST MISSISSIPPI

CITY           SKY/WX    TMP DP  RH WIND       PRES   REMARKS
CLARKSDALE     FAIR      39  28  65 E7        30.31R WCI  34
CLEVELAND      PTSUNNY   44  31  60 E9        30.28R
GREENWOOD      MOSUNNY   42  28  57 VRB5      30.29R
GREENVILLE     PTSUNNY   44  35  70 E12       30.25R
OLIVE BRANCH   CLOUDY    36  23  60 NE6       30.29R WCI  31
OXFORD         PTSUNNY   36  23  60 E5        30.30R WCI  32
TUNICA         CLOUDY    37  27  65 CALM      30.32R
$$

MSZ003>006-009-014>017-022>024-029>033-037>039-281500-
NORTHEAST MISSISSIPPI

CITY           SKY/WX    TMP DP  RH WIND       PRES   REMARKS
COLUMBUS AFB   SUNNY     40  26  58 NE6       30.27R
CORINTH        FAIR      39  21  48 N5        30.27R
GOLDN TRIANGLE MOSUNNY   39  28  65 N5        30.27R
STARKVILLE     PTSUNNY   39  30  70 E5        30.27R
TUPELO         SUNNY     39  26  59 E6        30.27R WCI  35
$$

MSZ040-058-281500-
CENTRAL MISSISSIPPI

CITY           SKY/WX    TMP DP  RH WIND       PRES   REMARKS
JACKSON INTL   PTSUNNY   45  37  73 E6        30.25R
JACKSON HAWKNS MOSUNNY   45  36  70 E8        30.24S
MERIDIAN KEY   MOSUNNY   44  34  67 NE5       30.27R
MERIDIAN NAS   NOT AVBL
RAYMOND        FAIR      46  41  81 E5        30.24R
VICKSBURG      SUNNY     47  38  71 SE10      30.26R
$$

MSZ059>079-281500-
SOUTH MISSISSIPPI

CITY           SKY/WX    TMP DP  RH WIND       PRES   REMARKS
BROOKHAVEN     FAIR      46  39  76 SE6       30.26R
HATTIESBURG    SUNNY     46  39  76 E6        30.27R
MCCOMB         SUNNY     47  38  71 SE8       30.24R
NATCHEZ        SUNNY     48  36  61 SE9       30.24R
PINE BELT      SUNNY     45  37  76 NE6       30.26R
$$

MSZ080>082-281500-
COASTAL MISSISSIPPI

CITY           SKY/WX    TMP DP  RH WIND       PRES   REMARKS
BAY ST LOUIS   SUNNY     50  34  53 E6        30.26S
BILOXI         SUNNY     49  38  65 E6        30.25R
PASCAGOULA     SUNNY     49  40  71 VRB6      30.26R
GULFPORT       SUNNY     51  37  58 E8        30.25R
$$


USA.gov is the U.S. government's official web portal to all federal, state and local government web resources and services.